User: anonymous   Login
Location: Unspecified
(0.0000°N, 0.0000°E)
Time: 23:14:09
(UTC+00:00)
Language:

Kosmos-690 - Orbit

View from above orbital plane
View from above orbital plane
View from above satellite
View from above satellite

Ground track
Ground track

The orbit data is extracted from the following two-line orbital elements,

1 07478U 74080  A 74312.09597253  .00125321 +11557-4 +13424-3 0 00098
2 07478 062.8068 187.1084 0102525 115.0132 246.1654 15.97292222002613
Epoch (UTC): 08 November 1974 02:18:12
Eccentricity: 0.0102525
inclination: 62.8068°
perigee height: 213 km
apogee height: 350 km
right ascension of ascending node: 187.1084°
argument of perigee: 115.0132°
revolutions per day: 15.97292222
mean anomaly at epoch: 246.1654°
orbit number at epoch: 261

The dashed part of the orbit path shows where the satellite is in the earth's shadow,  

DLR